Printer-friendly version
Follow the MPC on Twitter Follow the MPC on Facebook The MPC blog
Minor Planet Center

MPEC 2000-J47 : 2000 DV110

The following Minor Planet Electronic Circular may be linked-to from your own Web pages, but must not otherwise be redistributed electronically.

A form allowing access to any MPEC is at the bottom of this page.


Read MPEC 2000-J46 Read MPEC 2000-J48


M.P.E.C. 2000-J47                                Issued 2000 May 12, 21:50 UT

     The Minor Planet Electronic Circulars contain information on unusual
         minor planets and routine data on comets.  They are published
   on behalf of Commission 20 of the International Astronomical Union by the
          Minor Planet Center, Smithsonian Astrophysical Observatory,
                          Cambridge, MA 02138, U.S.A.

             Prepared using the Tamkin Foundation Computer Network

             BMARSDEN@CFA.HARVARD.EDU or GWILLIAMS@CFA.HARVARD.EDU
          URL http://cfa-www.harvard.edu/iau/mpc.html  ISSN 1523-6714

                                  2000 DV110

                           Revision to MPEC 2000-G03

Observations:
     K00DB0V 1 1994 02 15.31528 10 42 09.04 +15 44 48.8                      675
     K00DB0V 1 1994 02 15.35347 10 42 06.59 +15 45 00.3                      675
     K00DB0V 1 1994 03 14.22917 10 08 17.65 +17 12 01.9                      675
     K00DB0V 1 1994 03 14.26389 10 08 15.03 +17 12 02.1                      675

Observer details:
675 Palomar Mountain.  Observers D. Griffith, J. D. Mendenhall, J. Mueller.
    Measurers G. Forti, A. Boattini, G. D'Abramo, R. Gal.  1.2-m Schmidt.

Orbital elements:
2000 DV110
Epoch 2000 Feb. 26.0 TT = JDT 2451600.5                 Williams
M 317.17761              (2000.0)            P               Q
n   0.32613697     Peri.  220.19602     -0.61651979     +0.78718393
a   2.0902715      Node    11.76976     -0.70124758     -0.53996207
e   0.3882603      Incl.    4.39930     -0.35798768     -0.29796381
P   3.02           H   18.5           G   0.15           U   4
Residuals in seconds of arc
940215 675  0.4+  0.6-    000301 858  0.2+  1.2+    000313 413  0.1+  0.6-
940215 675  0.8+  0.1-    000301 858  1.2+  0.8+    000313 413  0.2+  0.6-
940314 675  1.4-  0.2+    000301 402 (2.4+  0.7+)   000429 413  0.1+  0.2-
940314 675  0.1+  0.0     000301 402 (5.0+  0.9-)   000429 413  0.2+  0.3-
000228 704  0.7+  0.3+    000302 651  0.7-  0.9-    000429 413  0.0   0.4+
000228 704  0.7+  0.5-    000302 651  0.6-  0.1+    000429 413  0.4-  0.0
000228 704  0.3-  0.3+    000302 651  1.3-  0.3-    000430 413  0.6+  0.1+
000229 704  0.6-  1.1-    000302 104  0.4+  0.4-    000430 413  0.2+  0.4+
000229 704  0.5+  0.6+    000302 104  0.1+  0.1-
000229 704  1.1+  0.1+    000302 104  1.8-  1.3+

Ephemeris:
2000 DV110               a,e,i = 2.09, 0.39, 4                   q = 1.2787
Date    TT    R. A. (2000) Decl.     Delta      r     Elong.  Phase     V
2000 05 06    09 29.47   +15 35.2    0.903    1.400    93.9    46.0    20.8
2000 05 16    09 48.20   +13 10.4    0.929    1.366    89.4    47.8    20.8
2000 05 26    10 09.53   +10 26.9    0.953    1.336    85.6    49.1    20.9
2000 06 05    10 33.09   +07 25.1    0.975    1.312    82.5    50.0    20.9
2000 06 15    10 58.61   +04 06.4    0.996    1.294    80.1    50.6    20.9
2000 06 25    11 25.86   +00 33.9    1.018    1.283    78.2    50.8    21.0
2000 07 05    11 54.73   -03 08.5    1.042    1.279    76.8    50.7    21.0
2000 07 15    12 25.15   -06 55.4    1.070    1.281    75.7    50.2    21.1
2000 07 25    12 57.01   -10 40.1    1.104    1.291    74.9    49.4    21.1
2000 08 04    13 30.23   -14 15.2    1.144    1.307    74.3    48.3    21.2
2000 08 14    14 04.67   -17 33.7    1.193    1.329    73.6    47.0    21.3
2000 08 24    14 40.05   -20 28.5    1.251    1.357    72.9    45.4    21.4
2000 09 03    15 16.10   -22 54.6    1.319    1.390    72.0    43.6    21.5
2000 09 13    15 52.41   -24 48.4    1.396    1.428    70.8    41.7    21.6
2000 09 23    16 28.53   -26 08.6    1.483    1.468    69.3    39.7    21.8
2000 10 03    17 04.04   -26 55.8    1.579    1.512    67.5    37.7    21.9

Gareth V. Williams           (C) Copyright 2000 MPC           M.P.E.C. 2000-J47

Read MPEC 2000-J46 Read MPEC 2000-J48


MPEC number:

Enter an MPEC number in one of the following forms:

  • 1997-B01 (the full form)
  • J97B01 (the packed version of the full form)
  • B01 (the abbreviated form)

Valid HTML 4.01!